Covington, KY

11:54 AM EDT on April 26, 2017 (GMT -0400)
Cincinnati-Northern KY International

Weather History for KCVG - October, 2013

Change the Weather History Date:

Monday, October 14, 2013

  Actual Average Record
Temperature  
Mean Temperature 60 °F 56 °F  
Max Temperature 72 °F 67 °F 87 °F (1897)
Min Temperature 47 °F 46 °F 27 °F (1979)
Degree Days  
Heating Degree Days 5 9  
Month to date heating degree days 39 104  
Since 1 July heating degree days 69 162  
Cooling Degree Days 0 1  
Month to date cooling degree days 30 16  
Year to date cooling degree days 1150 1121  
Growing Degree Days 9 (Base 50)    
Moisture  
Dew Point 46 °F    
Average Humidity 64    
Maximum Humidity 86    
Minimum Humidity 41    
Precipitation  
Precipitation 0.00 in 0.11 in 1.42 in (1954)
Month to date precipitation 3.90 1.48  
Year to date precipitation 40.60 33.90  
Snow  
Snow 0.00 in 0.00 in 0.00 in ()
Month to date snowfall 0.0 0.1  
Since 1 July snowfall 0.0 0.1  
Since 1 September snowfall 0.0 0.1  
Snow Depth 0.00 in    
Sea Level Pressure  
Sea Level Pressure 30.26 in    
Wind  
Wind Speed 5 mph (NNE)    
Max Wind Speed 12 mph    
Max Gust Speed 14 mph    
Visibility 10 miles    
Events      
T = Trace of Precipitation, MM = Missing Value Source: NWS Daily Summary

Daily Weather History Graph

Daily Weather History Graph

Search for Another Location

Airport or City:

Trip Planner

Search our weather history database for the weather conditions in past years. The results will help you decide how hot, cold, wet, or windy it might be!

Date:

Astronomy

Oct. 14, 2013 Rise Set
Actual Time 7:47 AM EDT 7:01 PM EDT
Civil Twilight 7:20 AM EDT 7:27 PM EDT
Nautical Twilight 6:49 AM EDT 7:58 PM EDT
Astronomical Twilight 6:18 AM EDT 8:29 PM EDT
Moon 4:28 PM EDT (10/14) 3:05 AM EDT (10/14)
Length of Visible Light 12h 07m
Length of Day
11h 13m
Waxing Gibbous, 79% of the Moon is Illuminated
Oct 14
Waxing Gibbous
Oct 18
Full
Oct 26
Last Quarter
Nov 3
New
Nov 10
First Quarter

Hourly Weather History & Observations

Time (EDT) Temp. Dew Point Humidity Pressure Visibility Wind Dir Wind Speed Gust Speed Precip Events Conditions
12:52 AM 55.9 °F 42.1 °F 60% 30.29 in 10.0 mi North 9.2 mph - N/A   Clear
1:52 AM 54.0 °F 42.1 °F 64% 30.30 in 10.0 mi North 9.2 mph - N/A   Clear
2:52 AM 52.0 °F 43.0 °F 71% 30.29 in 10.0 mi North 9.2 mph - N/A   Clear
3:52 AM 51.1 °F 42.1 °F 71% 30.30 in 10.0 mi North 6.9 mph - N/A   Clear
4:52 AM 50.0 °F 42.1 °F 74% 30.30 in 10.0 mi North 8.1 mph - N/A   Clear
5:52 AM 48.9 °F 42.1 °F 77% 30.30 in 10.0 mi North 8.1 mph - N/A   Clear
6:52 AM 46.9 °F 42.1 °F 83% 30.31 in 10.0 mi North 5.8 mph - N/A   Clear
7:52 AM 46.9 °F 43.0 °F 86% 30.32 in 8.0 mi North 5.8 mph - N/A   Partly Cloudy
8:52 AM 50.0 °F 45.0 °F 83% 30.32 in 10.0 mi North 3.5 mph - N/A   Partly Cloudy
9:52 AM 55.9 °F 46.9 °F 72% 30.32 in 10.0 mi NE 9.2 mph - N/A   Clear
10:52 AM 60.1 °F 48.9 °F 67% 30.32 in 10.0 mi NE 4.6 mph - N/A   Clear
11:52 AM 64.0 °F 48.9 °F 58% 30.30 in 10.0 mi ENE 9.2 mph - N/A   Clear
12:52 PM 66.9 °F 50.0 °F 54% 30.28 in 10.0 mi ENE 6.9 mph - N/A   Clear
1:52 PM 69.1 °F 48.0 °F 47% 30.25 in 10.0 mi Calm Calm - N/A   Clear
2:52 PM 71.1 °F 48.0 °F 44% 30.23 in 10.0 mi Calm Calm - N/A   Partly Cloudy
3:52 PM 71.1 °F 46.9 °F 42% 30.20 in 10.0 mi North 5.8 mph - N/A   Partly Cloudy
4:52 PM 71.1 °F 46.0 °F 41% 30.19 in 10.0 mi NE 6.9 mph - N/A   Partly Cloudy
5:52 PM 70.0 °F 46.0 °F 42% 30.19 in 10.0 mi NNE 5.8 mph - N/A   Mostly Cloudy
6:52 PM 66.9 °F 46.0 °F 47% 30.20 in 10.0 mi North 3.5 mph - N/A   Mostly Cloudy
7:52 PM 61.0 °F 48.0 °F 62% 30.19 in 10.0 mi Calm Calm - N/A   Overcast
8:52 PM 60.1 °F 48.9 °F 67% 30.18 in 10.0 mi NNE 4.6 mph - N/A   Mostly Cloudy
9:52 PM 59.0 °F 48.0 °F 67% 30.18 in 10.0 mi Calm Calm - N/A   Overcast
10:52 PM 59.0 °F 48.0 °F 67% 30.19 in 10.0 mi East 3.5 mph - N/A   Overcast
11:52 PM 59.0 °F 53.1 °F 81% 30.18 in 10.0 mi East 3.5 mph - N/A   Overcast